{"data":{"norad_id":57622,"intl_designator":"2023-119W","name":"STARLINK-30056","alt_names":[],"object_type":"PAYLOAD","status":"ACTIVE","operator":null,"country":"US","launch_date":"2023-08-11","launch_site_code":"AFETR","launch_vehicle":null,"mission":null,"orbit_class":"UNKNOWN","rcs_meters":null,"size_class":null,"mass_kg":null,"dimensions":null,"purposes":["comms"],"wikipedia_slug":null,"has_3d_model":false,"image_url":null,"decayed_at":null,"tle_current":{"epoch":"2026-05-24T21:51:07.713216Z","epoch_age_seconds":86287,"freshness":"FRESH","line1":"1 57622U 23119W   26144.91050594 -.00000820  00000+0 -20255-4 0  9997","line2":"2 57622  43.0014  11.0768 0001478 274.3964  85.6719 15.27581608154744","mean_motion":15.27581608,"eccentricity":0.0001478,"inclination_deg":43.0014,"raan_deg":11.0768,"arg_perigee_deg":274.3964,"mean_anomaly_deg":85.6719,"bstar":-2.0255e-5,"rev_number":15474,"period_min":94.2666494843,"perigee_km":482.03019852005,"apogee_km":484.05836370675,"semimajor_km":6861.1812811134,"source":"CELESTRAK","updated_at":"2026-05-25T13:38:18.361037Z"}}}